GFSCGP_700_spd_060.txt.gz
Wind_Speed
35 38 46 42 38 37 23 22 35 31 30 25 27 21 21 22 23 22 25 19 15 18 23 28 30 30 29 28 29 29 29 27 27 25 24 21 17 16 15 13 10 8 6 5
35 47 39 38 37 37 34 24 24 36 23 25 26 26 21 25 26 25 32 23 17 19 25 30 30 30 32 29 26 26 30 31 28 27 23 21 20 19 17 15 12 9 6 5
40 28 42 39 40 41 38 36 29 30 27 22 22 25 25 29 31 32 33 31 24 21 22 28 32 33 34 34 31 27 26 32 30 28 27 25 26 25 22 17 12 9 7 6
33 37 12 28 42 40 43 38 35 25 15 12 26 8 29 30 32 34 34 34 31 27 27 27 29 32 32 35 34 30 26 31 32 31 29 28 25 24 20 16 13 10 8 6
31 22 38 20 35 37 40 32 36 39 33 25 19 15 29 31 35 35 36 32 37 30 29 30 28 24 26 30 35 33 32 32 34 34 31 30 28 25 21 17 15 13 11 8
27 30 19 28 32 21 31 5 23 31 30 21 35 22 25 40 35 32 34 33 33 35 31 31 30 29 24 25 29 33 35 35 36 36 35 32 29 26 23 19 17 15 12 11
23 35 29 23 9 30 24 29 6 11 11 14 30 29 37 36 39 31 30 27 26 29 33 34 33 35 34 26 26 32 34 36 38 37 37 34 30 27 23 20 19 16 13 12
7 12 29 28 32 20 33 34 16 8 4 15 27 16 31 50 36 35 24 25 31 32 31 36 35 29 35 31 26 30 35 36 38 38 37 34 32 28 25 23 21 18 15 13
5 7 14 30 36 27 30 44 39 14 6 8 26 25 36 30 37 43 36 32 27 21 26 34 35 33 31 33 31 33 36 37 38 37 36 36 33 30 27 24 22 20 18 16
7 13 16 22 31 39 35 23 32 35 7 5 6 27 28 40 33 33 40 38 32 26 20 34 36 33 31 31 31 30 33 37 39 38 37 36 33 31 29 27 25 22 20 19
11 10 21 21 20 34 38 39 26 34 30 8 2 11 31 32 35 40 40 34 23 15 19 26 32 34 33 31 32 32 33 36 39 39 38 37 35 33 32 30 28 25 23 23
15 9 14 30 25 22 24 40 38 25 21 35 13 22 16 20 27 24 40 31 20 13 12 24 29 35 34 31 30 31 33 37 40 39 39 37 36 35 34 31 29 27 26 24
8 3 8 13 27 30 25 26 36 36 19 37 22 13 35 22 30 23 27 34 31 23 17 17 33 32 33 28 30 28 33 36 38 39 39 38 37 36 34 31 29 28 27 26
13 14 17 20 9 5 17 24 30 23 25 25 36 34 41 35 26 23 19 24 27 23 23 22 26 32 34 29 30 30 30 34 37 38 38 39 38 36 34 32 30 30 29 27
11 19 25 35 40 29 29 25 18 15 21 20 30 30 32 34 35 23 25 27 26 23 22 22 27 29 32 35 31 32 29 29 34 37 37 37 35 35 34 34 32 31 30 28
18 24 22 31 33 30 36 30 19 16 18 29 27 33 38 31 30 29 32 32 36 30 29 30 34 38 35 34 23 30 30 31 31 34 35 34 34 34 33 32 32 31 30 28
20 22 15 13 11 11 20 33 18 12 14 26 38 30 26 27 29 30 26 27 36 33 34 41 43 41 33 34 28 27 27 28 29 28 29 32 31 30 30 30 31 30 29 28
26 23 20 12 6 4 10 15 17 21 16 26 37 36 33 34 30 30 28 30 37 35 40 43 44 41 36 35 35 30 25 26 24 21 20 24 27 27 27 27 28 28 27 26
31 25 14 5 4 6 18 19 18 18 12 19 26 33 27 26 22 18 17 30 31 27 27 37 38 36 36 35 36 33 29 26 23 20 19 17 17 19 20 23 25 25 25 24
30 31 26 5 3 7 10 11 20 19 14 13 23 29 31 26 19 19 20 19 18 30 36 37 38 35 35 39 38 36 33 29 23 22 22 23 22 21 20 19 19 18 19 19
30 30 31 24 8 3 4 16 26 8 6 16 20 26 29 25 18 16 19 18 16 33 39 40 38 36 36 40 37 38 37 33 27 26 25 24 22 21 18 17 16 17 18 21
10 9 6 6 12 3 11 25 21 18 16 20 25 27 27 27 23 17 15 17 21 29 32 33 32 35 36 36 35 38 38 36 32 30 27 25 22 22 20 18 19 21 22 23
9 8 2 4 6 3 24 34 32 25 19 19 22 26 31 31 30 25 19 17 19 24 27 28 29 30 32 35 36 43 41 39 37 34 32 30 26 25 26 25 24 24 23 23
25 19 15 4 18 6 25 23 24 24 22 20 20 21 26 28 31 30 26 22 21 21 23 24 24 26 30 35 36 43 43 43 42 39 36 32 31 28 28 29 28 26 22 21
26 26 18 21 17 9 10 15 14 18 24 20 17 18 21 23 22 26 29 27 26 26 26 25 24 24 26 29 31 33 38 41 40 37 37 38 37 34 34 32 32 31 30 28
29 25 23 19 20 14 3 13 15 15 21 19 17 18 19 21 21 19 22 26 25 26 28 28 28 27 26 26 26 26 28 28 28 28 30 31 33 32 33 35 37 36 33 32

GFSCGP_700_spd_063.txt.gz
Wind_Speed
35 39 45 40 36 25 14 22 17 19 26 26 32 25 19 17 19 18 16 20 14 20 25 27 29 30 31 30 29 28 25 24 25 23 20 18 15 14 15 13 11 8 6 5
30 42 35 34 35 32 28 14 18 20 15 22 23 33 29 24 19 18 16 20 17 16 24 29 31 30 32 30 29 30 28 27 25 24 22 19 17 16 17 17 13 10 8 6
33 21 37 35 34 34 33 31 19 15 14 21 21 27 30 31 24 25 24 21 24 18 17 24 31 32 33 32 29 29 30 28 27 26 25 24 23 22 21 18 15 11 9 6
26 33 13 27 39 33 30 33 29 22 14 18 29 22 31 36 30 28 27 26 25 29 21 21 29 33 33 32 31 28 29 30 30 30 28 25 24 22 19 17 15 13 10 7
18 22 30 29 18 27 32 24 32 28 21 16 16 20 31 29 37 33 29 26 26 26 28 23 22 28 32 33 33 33 31 30 33 33 30 28 27 25 23 21 18 14 11 9
22 22 18 23 33 11 21 7 10 17 26 25 35 22 30 31 44 37 30 26 25 25 27 27 23 24 31 33 35 36 35 33 32 35 33 31 29 27 26 22 19 15 13 11
21 25 24 18 15 26 21 20 11 7 11 19 30 29 32 26 35 40 34 27 25 25 26 28 29 27 28 27 31 39 39 37 34 36 35 33 31 29 27 24 21 18 15 12
12 12 23 25 26 15 30 30 14 13 9 14 26 20 35 38 17 31 34 27 22 26 25 27 30 29 25 29 25 32 37 39 38 37 36 35 32 31 29 26 23 20 16 14
5 10 14 27 30 28 21 38 35 16 5 12 22 30 29 32 34 39 22 32 24 23 22 21 24 28 31 27 33 28 31 35 38 37 37 36 34 33 31 28 25 22 19 17
4 6 15 15 26 34 28 23 29 25 17 14 9 26 28 37 33 34 38 41 34 25 21 19 24 31 31 31 29 33 30 32 34 35 37 36 34 33 32 31 29 25 22 21
7 7 9 14 11 21 30 26 22 29 31 11 15 15 18 28 29 44 34 38 39 33 31 25 27 27 27 32 31 31 34 34 35 35 36 37 36 35 35 33 31 28 25 24
11 7 10 18 15 16 15 25 30 28 27 36 28 15 15 21 15 29 33 36 28 28 24 17 31 31 32 30 32 31 31 37 37 37 37 38 37 37 37 35 33 30 28 25
4 5 6 8 17 18 19 16 25 24 24 29 23 32 19 10 20 27 27 27 31 35 33 25 19 32 32 33 31 32 30 32 34 38 40 39 39 39 37 36 34 32 29 26
12 13 11 12 12 12 14 12 17 13 27 31 30 26 30 33 21 23 19 22 24 32 37 33 25 27 36 33 32 31 30 28 34 38 40 41 40 38 36 35 35 33 30 28
10 11 16 16 18 31 34 31 21 19 24 22 32 27 18 28 31 30 29 20 13 24 31 26 22 23 35 34 33 31 29 29 34 38 42 42 39 38 37 37 37 35 33 30
18 11 10 20 20 27 40 40 31 26 27 26 27 35 29 21 21 28 30 31 24 24 22 24 22 19 19 36 32 27 30 30 32 36 39 38 38 40 39 38 37 36 34 33
19 18 9 16 15 18 21 44 36 26 23 24 33 39 36 30 30 28 27 28 29 30 33 29 24 24 24 29 31 28 27 32 31 29 35 37 37 37 37 37 36 35 33 32
21 20 12 15 14 11 20 19 27 29 23 23 31 35 35 33 28 27 27 27 27 28 39 35 28 29 30 32 33 30 29 31 31 29 28 34 35 35 35 35 34 32 32 30
26 25 14 10 11 22 15 16 22 27 19 28 31 39 41 40 36 33 30 26 26 32 35 40 33 33 35 40 36 34 29 27 30 30 30 33 35 34 33 33 32 31 30 29
30 27 23 15 8 7 14 23 25 23 8 23 30 36 38 38 36 37 32 28 21 34 39 41 41 46 47 44 38 37 32 30 27 26 27 28 30 30 30 30 30 29 28 27
22 27 28 24 16 21 13 17 23 8 9 19 27 31 35 38 34 34 32 29 27 26 33 39 46 47 47 47 38 38 33 31 24 27 28 28 27 26 24 24 25 26 26 26
17 16 17 20 18 17 13 17 13 14 19 22 26 29 30 30 27 24 20 24 18 15 28 31 32 36 46 49 40 37 38 37 30 26 24 22 22 22 25 27 27 26 25 26
7 16 5 9 6 10 6 19 26 24 25 25 28 29 28 27 23 18 12 9 9 15 20 20 25 34 39 38 38 39 43 42 38 34 31 29 29 30 29 28 28 27 25 25
22 7 12 5 7 12 6 10 20 26 27 26 27 27 26 27 26 24 19 15 13 13 20 22 25 27 29 30 34 41 45 45 41 38 35 33 34 33 31 31 29 26 24 23
23 22 15 20 14 4 7 6 17 26 28 26 24 23 22 23 22 22 24 24 24 20 20 23 25 26 27 29 31 37 42 44 46 44 42 39 39 37 35 34 32 30 29 27
32 25 20 15 13 11 3 11 17 20 24 24 23 21 20 20 19 21 21 24 23 24 21 20 22 24 26 27 29 32 35 42 47 46 44 45 43 38 37 34 32 32 30 29

GFSCGP_700_spd_069.txt.gz
Wind_Speed
21 22 31 27 27 23 17 21 24 23 25 19 27 25 19 21 20 19 20 20 23 28 30 29 30 30 30 30 27 25 24 24 23 21 19 16 13 16 11 10 10 8 6 5
20 31 25 23 22 24 24 18 20 25 19 25 22 29 22 19 22 21 22 21 23 26 30 33 32 32 33 32 29 27 25 24 23 22 20 18 16 15 14 12 9 8 7 6
28 15 25 26 26 25 27 26 21 19 21 20 25 28 29 26 23 22 22 21 21 26 30 33 32 33 33 33 31 28 27 24 24 24 22 21 19 16 15 9 12 9 7 6
27 27 17 25 30 27 27 25 23 21 24 24 27 26 34 32 25 26 25 24 24 27 28 29 32 33 33 32 31 29 28 27 25 25 25 23 20 17 14 14 12 10 8 7
24 24 31 27 28 28 29 21 23 24 24 25 25 32 30 38 36 28 27 26 26 27 28 28 25 27 31 33 31 30 30 29 28 26 26 24 23 19 15 13 15 12 9 8
21 20 21 32 27 26 24 23 24 22 27 25 34 33 35 35 40 38 29 29 28 29 29 27 22 24 30 33 34 33 31 31 30 28 28 27 26 24 19 18 16 14 11 10
20 23 23 21 23 31 23 29 24 18 21 20 34 38 35 31 34 37 34 32 31 30 31 30 31 28 21 28 31 31 31 31 32 31 30 29 28 26 23 22 19 17 14 12
18 21 26 27 28 29 37 32 26 26 16 22 35 37 43 33 23 30 33 34 33 31 31 32 33 28 23 22 24 29 30 31 32 31 32 31 31 29 27 25 23 20 17 14
17 30 10 16 26 27 30 42 37 37 33 30 34 37 30 30 39 28 25 33 36 35 32 32 33 33 31 28 25 22 27 29 33 32 31 32 33 33 31 29 27 24 21 17
12 19 17 20 20 21 33 26 36 40 25 25 28 33 35 36 29 38 31 27 33 35 33 32 31 32 33 30 26 25 25 26 30 33 33 32 32 35 35 33 30 27 25 22
14 16 23 18 21 29 28 35 26 31 43 19 17 22 25 30 31 32 40 31 33 29 28 32 32 31 32 32 32 29 27 28 28 34 34 35 33 36 38 35 33 31 28 24
13 18 24 25 17 24 31 29 39 30 28 42 34 20 24 25 23 23 34 39 37 31 32 30 30 31 33 32 31 30 30 29 30 28 32 34 35 34 38 38 36 33 30 27
15 16 21 21 24 23 26 29 25 35 37 34 29 33 6 8 18 18 21 30 32 35 30 31 30 30 32 31 27 27 32 33 29 31 30 32 37 38 37 39 37 35 33 29
15 16 22 23 8 7 29 31 24 27 34 41 36 35 30 13 13 8 12 15 27 27 34 33 31 30 30 31 27 28 31 33 32 29 31 33 35 38 38 39 39 38 35 32
18 23 23 25 23 16 15 15 25 27 30 26 32 32 29 21 23 16 15 12 14 17 24 28 33 31 30 33 32 23 32 31 33 29 28 30 33 35 37 39 39 38 37 34
18 21 20 23 23 22 22 22 22 25 29 28 28 29 27 19 17 4 14 12 12 10 12 16 24 29 29 31 34 27 25 35 34 33 27 26 27 32 36 37 37 37 37 35
17 18 19 23 21 25 29 29 28 28 31 32 36 36 29 22 20 12 10 15 14 12 15 17 15 19 29 29 33 30 27 36 38 37 33 30 27 29 33 35 37 37 37 35
22 16 20 15 17 17 23 24 27 27 28 33 36 36 41 36 30 26 15 19 25 20 21 23 21 20 22 26 28 33 33 37 38 37 35 34 32 30 31 34 37 37 36 35
24 21 13 16 22 22 22 19 12 18 27 26 26 29 39 38 31 31 27 22 28 24 16 19 23 25 27 29 26 32 33 39 40 39 35 31 29 31 34 33 36 37 36 36
29 25 24 17 20 20 24 12 19 24 27 22 27 28 30 31 38 35 27 29 41 30 20 20 24 27 30 32 35 30 32 40 43 38 35 31 30 26 31 33 34 34 34 34
16 27 30 29 25 22 21 12 21 16 20 20 13 15 28 27 31 28 37 40 45 41 34 24 21 26 30 36 37 32 30 41 36 39 38 37 34 27 26 33 33 31 32 34
10 13 24 31 30 26 19 21 21 25 30 21 13 19 17 21 31 35 48 39 41 40 37 34 29 24 30 36 39 35 30 31 42 41 35 36 36 32 27 30 33 32 32 33
8 11 14 14 22 21 25 31 30 30 32 30 27 27 27 26 36 40 36 40 43 42 37 36 31 26 27 39 41 37 36 31 39 44 39 37 39 35 31 27 31 33 34 34
8 15 25 26 30 36 33 38 33 32 34 18 23 31 35 21 30 31 31 37 45 44 42 38 34 31 29 35 43 45 42 36 32 35 38 39 38 38 34 30 31 33 36 36
19 19 9 11 14 21 5 13 12 22 30 19 24 29 36 40 28 27 29 31 35 39 38 35 32 32 32 37 43 44 46 42 40 44 41 37 36 37 36 33 33 34 35 35
21 24 18 12 12 15 7 4 2 12 16 25 24 22 25 28 28 26 29 30 27 27 29 31 29 29 33 41 47 47 44 45 44 38 45 42 39 38 37 35 33 32 34 34

GFSCGP_700_spd_072.txt.gz
Wind_Speed
19 22 26 23 23 23 21 21 20 20 24 24 24 23 25 27 22 17 24 24 28 31 33 31 31 29 28 25 23 22 21 21 22 20 18 16 15 16 12 7 10 7 4 4
18 30 21 18 21 24 25 23 21 20 21 25 25 23 26 27 27 31 30 26 29 32 29 33 35 32 32 27 24 24 22 20 22 21 18 16 15 15 12 6 7 6 4 4
26 17 20 23 23 25 25 26 22 19 14 22 25 26 30 25 20 38 38 28 29 34 36 35 34 36 34 29 25 25 23 19 22 22 21 19 17 18 17 13 12 8 6 5
25 22 21 19 28 24 28 22 24 23 20 24 22 23 28 35 33 20 37 27 29 32 34 35 33 37 34 28 25 25 25 22 22 24 23 20 18 17 14 11 10 10 7 6
21 23 24 28 20 25 29 22 21 25 25 25 28 29 28 35 33 43 42 33 28 29 32 35 31 28 28 29 24 25 26 24 24 24 24 22 21 17 11 15 12 11 7 5
18 19 21 26 28 22 23 24 23 23 26 24 30 30 27 30 37 38 26 35 29 31 32 34 28 25 31 31 28 27 27 27 26 25 25 24 22 20 18 16 14 12 9 7
16 20 22 19 21 27 24 23 22 20 20 18 31 33 31 23 34 30 22 33 39 36 34 36 34 29 24 26 25 25 26 28 27 28 27 25 24 23 20 18 16 14 12 11
19 17 20 24 27 23 31 30 27 19 15 21 31 33 39 33 28 30 27 35 32 41 42 36 39 31 22 18 17 21 23 27 27 27 29 27 26 26 24 20 17 16 15 11
16 24 21 9 22 24 29 34 34 35 32 29 29 28 35 28 34 24 35 41 50 57 44 42 35 34 25 24 21 19 17 24 28 26 26 29 29 29 27 24 22 20 17 13
12 21 19 15 19 20 25 29 32 36 22 23 27 35 30 31 31 35 28 27 28 32 42 40 34 32 28 26 27 24 23 18 25 29 28 27 27 30 30 28 26 23 21 18
11 19 28 21 19 26 28 28 33 25 33 17 17 25 25 35 37 31 38 30 25 22 37 34 34 34 32 27 30 28 26 24 22 29 31 30 30 30 33 32 29 27 24 23
13 18 24 25 25 21 26 29 31 30 27 29 37 31 13 15 33 35 26 36 28 21 25 45 38 31 32 34 32 28 29 27 25 23 29 31 31 31 31 34 32 29 29 26
14 19 19 24 24 25 27 31 33 33 37 32 24 36 31 16 13 25 25 29 35 32 25 30 36 48 38 28 31 30 29 30 26 27 26 28 33 34 33 33 32 32 31 29
13 17 21 25 22 14 17 29 28 36 34 34 37 30 37 11 1 4 5 15 27 30 34 25 20 33 51 33 24 29 26 27 30 30 28 28 28 32 34 34 33 34 33 30
14 23 27 30 33 23 22 21 17 31 33 35 33 36 28 9 4 7 2 6 7 23 21 30 29 32 45 29 22 26 25 26 28 33 31 26 26 27 31 35 36 35 34 32
13 20 21 31 29 25 28 27 24 22 39 35 35 30 25 18 29 2 4 5 11 13 12 19 21 20 37 26 29 25 24 23 28 31 31 28 25 27 30 33 36 37 36 33
16 17 14 27 24 26 32 29 28 24 23 23 32 31 27 13 11 27 7 5 6 11 11 14 16 21 24 22 32 28 27 25 23 29 30 29 27 25 30 31 33 36 36 35
21 16 17 14 14 14 27 28 27 30 27 26 28 28 29 25 20 20 20 7 13 17 20 18 20 23 21 25 15 19 31 34 30 28 34 31 29 26 27 31 32 33 35 36
20 22 14 9 16 21 17 17 16 16 32 27 24 26 21 18 24 31 31 20 16 16 20 26 24 22 28 36 33 17 30 35 30 30 34 33 33 31 30 30 31 34 34 36
21 23 23 17 13 10 19 8 11 15 18 18 25 28 22 18 19 25 30 35 19 23 23 24 22 24 22 22 34 37 27 38 34 31 34 36 35 34 32 31 31 30 33 34
13 16 28 20 21 23 16 14 17 14 18 17 27 29 33 21 14 16 15 26 34 29 32 27 26 18 20 23 28 36 39 39 33 30 39 38 36 32 32 31 33 33 31 32
9 7 10 18 22 21 14 12 14 15 22 21 26 26 31 33 16 17 21 30 34 39 33 34 32 31 24 20 25 28 35 36 34 32 35 41 39 35 35 30 31 34 35 33
3 10 13 8 13 13 20 24 32 33 33 31 34 35 30 34 29 27 34 40 36 41 37 38 38 34 28 25 24 29 31 39 36 33 34 40 41 37 36 34 29 30 35 37
12 18 13 22 22 28 31 33 35 41 44 43 41 38 40 34 35 39 43 43 41 36 49 43 42 42 36 28 27 27 28 37 39 35 33 39 40 37 38 38 35 30 32 37
15 20 18 15 16 19 19 33 45 46 54 48 45 40 38 41 33 42 50 49 44 40 41 44 42 44 40 34 30 30 29 32 42 40 33 35 40 39 39 40 38 34 30 33
19 19 24 19 17 18 22 16 20 13 18 31 35 34 27 37 35 35 41 39 35 37 40 42 41 42 41 36 32 32 31 35 39 42 37 34 32 41 40 39 40 37 32 30

GFSCGP_700_spd_075.txt.gz
Wind_Speed
15 20 25 24 21 20 23 27 27 20 13 20 28 27 22 21 20 15 11 32 27 25 37 34 35 31 28 24 21 20 20 23 23 21 19 16 12 15 12 11 13 5 7 4
13 25 19 14 16 19 18 24 25 23 14 18 24 32 29 27 23 18 18 32 33 23 27 35 37 35 31 26 23 21 19 21 21 21 19 17 14 14 13 9 11 10 6 4
19 11 12 20 19 21 25 24 23 26 21 20 16 24 32 26 23 17 10 28 34 23 29 34 37 38 35 28 26 24 20 18 21 22 21 20 18 18 20 13 11 9 7 4
19 17 21 20 21 20 25 21 22 23 25 26 17 6 32 30 28 25 26 31 34 37 28 31 39 42 38 27 25 26 21 19 20 23 22 20 17 17 14 10 13 10 7 7
16 17 19 23 22 20 26 21 21 23 26 25 31 15 16 28 32 25 35 24 33 36 40 36 39 38 36 29 25 27 24 21 21 22 22 20 19 17 16 15 14 10 9 7
14 17 16 18 23 23 15 17 24 23 23 16 32 22 29 23 24 35 36 36 41 39 39 41 37 37 38 33 28 28 27 23 24 23 24 22 20 18 17 17 15 15 11 8
9 14 20 16 13 19 24 18 12 11 12 11 19 26 29 16 18 27 28 34 18 37 50 48 35 39 39 34 27 27 27 25 26 24 24 23 22 19 17 15 14 16 13 9
18 17 15 6 19 14 17 25 18 7 5 11 25 18 34 28 23 25 28 32 28 26 42 48 35 32 32 26 22 26 27 25 24 24 23 23 24 22 19 17 13 14 14 11
8 18 23 17 12 24 23 25 26 27 28 19 22 25 29 26 26 25 28 32 32 33 47 49 37 31 28 28 19 20 27 27 25 24 23 23 24 26 23 20 17 15 14 14
8 13 19 18 11 8 23 22 21 18 7 12 11 28 23 21 21 30 31 34 35 38 45 43 42 41 25 31 23 22 23 28 26 26 25 22 23 25 24 23 20 17 15 15
10 9 27 21 6 11 14 17 23 22 17 10 9 17 31 26 16 29 32 29 37 42 39 37 38 39 41 34 33 30 24 25 30 30 29 26 24 26 27 26 23 21 18 18
7 9 16 25 32 21 21 23 23 24 13 23 22 20 30 33 35 34 30 33 34 38 43 45 29 48 53 49 37 33 29 26 26 29 29 30 27 26 27 28 26 24 22 22
9 7 9 15 23 21 14 19 20 25 21 26 16 16 20 27 20 9 4 8 22 32 38 38 24 18 53 50 38 32 31 28 26 27 29 30 32 29 28 28 27 27 26 25
12 15 11 14 18 21 26 22 15 17 27 28 28 31 31 19 11 1 10 8 6 15 21 26 18 14 44 51 47 32 27 28 28 28 29 27 27 31 30 30 30 28 28 29
9 13 18 25 27 27 27 32 25 25 21 19 29 23 20 18 13 7 11 22 31 9 25 33 28 19 14 35 40 43 41 27 28 31 30 26 26 27 30 33 32 30 30 30
9 14 15 24 27 31 30 31 30 26 23 25 26 28 19 24 32 22 11 7 21 21 14 13 2 21 32 26 43 39 30 31 25 26 31 30 28 28 26 30 33 34 32 31
16 19 17 21 18 22 27 30 28 27 24 25 27 23 18 17 20 23 16 17 5 11 8 5 12 18 23 25 40 37 32 24 25 20 20 27 31 26 26 28 30 32 34 31
19 21 15 16 14 6 22 16 24 31 30 30 29 23 16 17 17 25 17 30 13 8 11 7 3 16 17 14 16 33 38 43 27 21 19 18 25 27 26 27 28 29 32 34
16 23 18 13 11 19 28 12 2 9 20 18 19 18 22 19 18 18 18 27 25 20 8 10 9 9 8 13 14 15 39 55 46 26 21 23 22 27 28 26 25 28 30 32
15 17 18 13 6 5 6 15 13 12 14 13 11 14 21 17 16 13 15 13 28 22 11 10 13 15 20 13 15 21 25 31 29 31 24 23 23 28 29 28 26 24 27 29
13 9 17 19 13 11 12 14 14 12 14 12 15 18 22 15 15 14 13 21 17 31 27 16 21 21 19 18 12 14 20 29 24 38 30 26 27 27 29 30 32 30 28 27
7 9 7 7 13 10 17 11 12 18 22 22 26 22 24 22 16 25 22 26 16 28 33 32 31 26 21 16 19 23 30 29 30 33 31 29 28 28 32 29 29 32 31 32
3 10 11 8 11 13 18 20 23 28 29 27 31 29 29 30 26 27 30 31 33 28 40 38 34 33 25 22 19 23 27 28 35 39 41 35 30 29 34 34 30 30 33 34
11 10 15 22 18 19 25 34 36 35 40 42 44 43 38 38 36 35 32 34 33 32 32 42 36 37 34 30 24 20 24 31 24 39 39 36 31 30 34 37 34 32 32 31
9 14 19 24 28 23 15 19 29 36 41 50 55 55 48 50 48 45 39 38 33 38 32 34 36 39 44 40 35 27 25 26 29 25 39 39 33 30 32 36 36 33 34 35
9 14 22 21 27 28 22 21 26 24 24 26 35 48 47 49 50 51 44 40 34 35 38 36 39 38 40 46 47 39 31 29 29 27 28 37 37 33 32 33 36 35 35 36

GFSCGP_700_spd_078.txt.gz
Wind_Speed
28 26 26 22 20 15 14 16 20 16 9 16 18 21 29 23 16 25 13 11 22 34 34 39 29 34 23 24 19 17 20 22 22 21 18 17 12 15 16 13 13 11 10 6
20 22 21 16 17 16 14 15 18 20 10 13 21 18 31 30 22 20 9 16 16 25 41 39 33 31 28 23 20 17 18 22 23 21 18 16 13 17 15 14 14 12 10 8
15 6 10 15 12 13 14 16 13 19 17 16 9 10 31 26 29 22 22 17 18 20 30 39 36 35 34 30 26 20 19 22 23 23 21 19 19 18 16 17 14 13 11 9
12 11 11 11 20 18 19 14 17 19 18 15 16 6 25 34 33 31 22 20 18 23 19 21 26 36 33 29 24 22 21 20 24 25 23 20 16 14 13 12 14 12 10 10
11 11 7 14 16 14 20 9 16 17 18 21 13 4 5 29 37 32 25 22 20 26 27 24 29 25 27 30 24 24 23 22 23 26 23 21 19 16 17 16 16 14 12 10
12 13 7 7 13 15 20 16 17 18 16 7 10 4 8 21 21 33 30 23 20 20 25 29 29 30 29 27 26 25 26 25 24 25 26 23 20 18 20 19 17 16 14 11
8 9 11 12 14 10 14 15 1 5 3 6 11 9 7 10 10 18 29 26 28 20 27 31 30 33 36 29 26 26 27 28 26 25 25 25 22 21 18 17 19 18 15 15
3 3 3 3 2 6 11 6 10 6 3 2 7 5 11 9 15 18 17 26 28 28 18 23 30 29 26 28 27 26 26 29 29 28 25 24 25 23 21 18 19 19 17 16
2 7 10 11 5 7 12 14 10 7 16 3 7 11 16 13 12 18 19 27 33 32 35 29 33 30 19 19 22 24 26 28 29 30 27 26 26 26 23 20 18 19 19 17
3 9 16 15 8 3 4 11 9 7 2 2 4 9 13 15 10 14 15 28 32 28 33 32 36 29 19 16 20 20 24 29 28 29 31 28 28 28 25 23 20 19 19 19
2 6 16 15 5 8 9 12 11 10 6 6 3 8 23 16 17 18 19 30 27 39 34 31 30 31 23 22 23 24 25 28 32 32 32 31 31 31 28 26 24 21 20 20
8 5 13 22 19 18 13 5 13 8 8 3 3 6 18 12 15 13 20 32 24 32 41 37 33 27 13 20 30 31 30 27 30 32 34 33 31 33 32 29 26 24 22 21
8 3 7 14 8 6 2 6 15 15 6 5 2 2 12 19 20 17 14 25 19 29 39 44 39 36 34 27 23 30 34 32 28 30 34 35 34 33 34 32 30 27 26 24
9 5 4 5 10 18 24 21 17 18 11 25 10 12 14 12 13 15 11 9 11 29 32 48 43 40 34 26 25 32 37 33 30 31 34 35 34 34 35 34 33 31 29 28
10 5 10 16 19 23 28 31 27 22 20 12 17 20 11 8 11 14 8 12 19 16 35 42 39 38 30 32 43 37 41 36 32 31 32 34 34 33 34 37 36 33 32 32
6 7 12 15 10 15 28 36 37 36 28 23 20 20 17 11 8 7 3 4 17 17 17 34 41 43 45 41 46 46 44 32 28 28 27 29 33 34 33 34 37 38 36 33
7 6 12 4 14 17 18 26 26 31 25 22 22 20 14 15 14 14 5 8 3 13 10 13 24 24 41 26 30 42 45 42 35 28 25 28 29 32 33 33 34 36 40 37
10 9 12 13 13 1 13 13 15 19 8 11 10 13 16 12 4 9 8 11 19 13 5 9 11 4 22 35 37 30 35 40 32 30 26 22 23 23 29 34 33 32 34 39
11 13 14 6 8 20 29 12 12 9 5 3 13 18 20 15 12 10 11 11 14 26 18 13 13 9 7 15 30 24 31 34 34 36 35 23 20 18 21 32 33 30 33 34
8 12 10 10 5 6 11 6 8 19 16 15 10 15 13 11 17 16 13 10 11 24 29 18 13 7 5 4 9 21 28 37 35 38 44 37 27 26 22 19 31 31 30 31
2 3 5 12 16 12 24 24 18 15 17 19 18 19 16 8 10 16 17 10 8 15 29 26 14 10 6 3 5 10 21 31 36 43 48 36 32 25 18 14 19 29 30 29
4 5 3 5 8 9 15 17 13 20 23 25 27 29 24 22 13 15 18 20 20 10 16 44 25 27 14 12 9 8 13 14 24 30 48 37 30 24 21 21 17 25 32 33
2 6 7 6 12 20 26 28 26 27 32 28 30 33 35 29 28 21 21 24 25 26 21 20 46 54 31 22 16 14 17 13 22 33 34 30 32 34 29 26 23 25 30 35
5 6 8 15 16 19 15 20 24 28 35 37 37 40 42 38 38 33 30 28 28 33 35 28 30 43 35 38 31 24 20 22 18 33 41 39 35 32 30 30 28 28 30 31
8 10 14 18 21 19 21 18 16 20 27 32 35 41 46 47 44 47 41 36 36 34 38 40 33 31 43 43 37 36 30 27 21 25 29 35 35 33 32 35 33 31 31 30
9 9 10 15 20 24 22 23 22 20 20 22 27 30 33 39 39 44 47 48 49 42 37 41 40 36 33 47 51 38 40 34 28 25 29 29 32 36 37 37 33 31 32 30

GFSCGP_700_spd_084.txt.gz
Wind_Speed
29 30 33 28 19 15 15 13 12 12 4 3 4 5 6 15 18 17 14 13 9 20 20 24 20 20 18 14 11 10 13 15 14 12 12 15 9 11 10 8 7 6 5 4
27 31 25 19 16 15 16 19 17 10 6 4 4 6 8 15 19 17 8 14 10 18 24 24 23 22 21 19 15 12 8 12 15 13 14 14 13 11 11 10 8 6 6 5
24 22 21 18 17 18 17 17 15 9 6 2 4 7 12 15 21 22 18 16 16 19 22 24 25 23 21 22 19 12 9 7 12 15 16 15 15 15 13 10 8 7 7 6
10 10 25 21 21 19 21 17 13 9 2 2 4 2 3 7 20 27 25 21 21 20 22 25 27 26 22 22 18 14 12 6 8 13 15 14 12 11 10 10 11 9 8 7
10 17 15 22 22 19 16 6 10 5 4 4 2 2 3 5 12 19 26 27 23 21 21 23 29 28 23 20 19 19 15 13 11 11 13 13 13 12 12 14 13 10 9 9
13 13 12 12 17 19 12 8 5 5 6 2 8 5 2 3 7 8 16 28 25 24 18 23 24 28 32 27 23 24 21 16 14 13 12 14 14 14 13 14 13 13 11 9
11 8 11 13 12 16 15 12 4 2 2 5 13 10 1 4 4 2 1 14 25 25 21 21 26 22 26 32 31 26 24 21 18 16 13 14 15 15 14 16 15 15 12 9
10 8 11 10 14 12 15 17 7 5 5 4 11 8 6 9 3 10 5 5 10 24 28 26 25 24 22 26 31 29 25 22 21 19 17 15 15 17 16 17 17 15 14 12
8 9 13 8 10 16 13 13 11 9 7 5 6 7 7 3 3 4 5 8 11 16 23 30 30 33 29 26 25 28 25 22 21 20 19 18 17 18 18 18 19 18 16 16
9 10 8 7 7 7 15 13 8 7 4 3 2 6 6 1 3 5 5 5 4 5 15 20 23 28 27 23 28 26 25 22 19 20 22 20 19 17 19 21 20 18 18 20
9 6 5 5 4 5 10 11 7 10 6 6 4 2 2 3 6 4 4 7 7 7 9 9 14 20 27 21 22 30 28 25 24 23 21 22 22 21 21 22 21 20 20 22
6 7 7 10 7 5 4 8 9 9 6 7 6 5 4 5 1 6 6 9 8 11 15 19 18 19 23 29 21 23 30 27 25 26 25 23 23 24 24 23 23 22 21 22
7 7 9 8 6 7 7 11 10 11 12 8 6 8 11 7 4 4 10 10 14 13 14 19 21 24 26 27 28 22 24 27 26 27 27 25 24 26 26 25 24 25 24 24
4 7 6 9 7 9 4 1 5 6 6 8 6 13 10 11 7 1 8 13 14 16 15 17 22 24 27 27 26 28 26 30 30 29 29 28 26 25 26 26 27 26 26 27
3 6 6 7 9 9 8 7 7 6 9 10 8 8 6 8 7 4 7 13 18 18 17 15 14 19 27 32 31 31 30 33 30 30 30 29 28 28 28 30 29 29 29 29
3 6 7 6 7 6 5 7 8 7 9 15 17 16 14 11 11 8 9 12 14 14 13 14 11 16 22 30 35 34 33 35 33 31 26 29 32 31 30 31 31 32 31 31
5 7 7 7 7 4 8 11 11 12 12 14 16 20 20 20 19 18 14 16 16 11 4 4 10 9 15 27 35 36 37 38 36 32 28 25 30 34 33 31 32 33 34 34
7 6 5 4 3 3 8 10 6 7 9 13 15 18 22 22 23 26 23 18 22 18 13 8 4 10 7 14 30 36 39 43 41 39 32 23 27 34 35 35 33 31 32 34
5 6 3 1 2 3 7 8 11 11 14 19 18 19 22 23 20 21 30 26 26 25 21 16 13 6 8 5 7 24 32 41 43 43 41 33 29 34 36 34 33 32 33 31
3 4 5 5 1 2 2 7 6 12 23 20 22 22 23 24 25 23 28 30 31 32 29 27 22 18 11 9 7 9 22 28 38 43 44 42 35 33 35 35 33 34 32 29
6 6 8 8 5 5 11 12 13 13 13 16 23 26 27 28 31 27 34 32 33 34 33 29 30 28 22 16 12 11 10 21 29 33 41 42 40 42 38 34 36 37 37 36
5 7 6 8 6 8 10 13 13 17 23 29 33 37 38 36 36 36 37 39 32 34 34 31 31 31 34 28 25 16 17 16 22 13 22 34 34 38 43 37 35 35 34 35
5 7 5 5 4 7 12 13 12 14 17 19 23 35 43 43 41 42 39 41 39 34 39 33 32 31 31 35 34 30 24 20 14 13 5 16 23 26 32 37 37 34 32 30
8 10 9 8 7 7 11 10 13 16 20 23 25 26 31 38 45 45 46 41 47 39 36 38 40 33 31 33 36 37 36 29 25 20 12 14 16 20 26 33 37 39 30 29
12 10 8 8 8 11 11 14 17 19 20 21 22 26 29 33 36 42 48 49 45 48 47 42 40 41 34 32 36 36 44 49 39 32 21 19 14 15 26 31 34 39 36 29
14 14 14 13 10 11 14 16 20 21 22 22 24 25 23 28 31 33 38 44 46 44 52 56 48 43 37 36 33 35 36 39 45 40 31 25 20 19 20 39 30 35 39 35

GFSCGP_700_spd_087.txt.gz
Wind_Speed
29 29 32 25 21 11 12 14 13 16 13 8 6 6 8 10 10 9 9 16 19 25 27 24 22 20 18 18 22 18 14 10 8 7 8 8 6 6 5 4 5 6 5 4
29 29 27 23 17 16 13 16 14 10 8 8 8 10 8 11 10 12 11 10 13 21 28 29 26 23 20 16 17 17 14 12 9 9 8 12 9 10 7 6 5 5 4 4
24 20 24 23 20 17 18 13 17 9 11 4 9 10 10 10 13 14 15 11 15 20 24 30 28 25 21 21 18 14 10 8 11 13 12 13 11 12 8 7 6 5 3 2
14 16 25 22 19 17 14 14 12 13 10 8 9 8 8 8 10 15 18 17 12 19 21 23 28 27 24 20 19 16 12 10 10 13 13 12 11 8 6 9 8 6 4 5
9 21 26 22 19 19 11 9 12 10 7 6 4 6 4 2 3 11 20 21 18 14 16 19 24 23 18 21 22 18 17 13 10 11 12 14 14 12 12 11 10 7 5 5
12 18 17 20 21 18 14 11 12 9 8 9 9 7 4 2 2 4 8 18 22 19 18 16 18 21 22 22 22 21 20 17 14 11 12 14 15 13 11 10 10 9 7 7
16 16 18 19 21 22 20 15 8 7 7 7 15 7 5 7 1 4 3 8 18 21 20 19 16 17 21 26 26 24 22 21 19 15 13 13 15 15 13 11 10 10 8 7
11 10 15 19 20 18 24 19 8 8 9 10 18 11 5 7 6 1 5 4 10 23 22 23 21 13 15 20 24 27 26 23 23 19 15 13 14 16 15 14 13 13 10 10
8 7 12 13 19 19 24 22 14 6 8 12 10 11 12 8 5 9 8 8 5 13 22 25 24 23 17 18 25 29 29 26 25 22 19 15 14 16 16 16 15 15 13 14
12 10 10 10 15 16 20 20 14 6 8 10 7 7 4 9 9 9 9 8 7 7 11 16 21 21 16 15 21 25 29 30 27 24 22 18 15 15 16 19 18 16 17 17
16 12 9 9 6 13 14 16 12 16 6 6 8 5 4 5 5 8 8 7 7 8 9 11 15 16 17 16 18 22 25 29 29 28 25 22 19 17 17 19 19 18 18 19
7 9 7 11 10 10 12 15 16 16 9 6 4 7 6 6 6 4 4 4 5 7 11 14 13 10 14 14 21 21 25 27 28 27 26 24 21 20 19 19 19 20 19 19
10 7 8 5 5 8 6 10 14 13 17 10 10 7 12 6 6 6 5 6 7 8 8 11 15 18 16 19 17 25 23 25 29 30 29 28 25 25 23 21 20 20 21 21
10 11 5 4 6 10 9 11 11 11 7 11 6 15 17 14 8 2 2 3 10 13 13 13 13 15 20 20 21 26 27 25 27 31 31 31 29 27 25 23 23 23 23 24
8 8 9 9 10 11 13 12 11 9 8 3 13 15 18 16 13 8 4 5 9 13 18 19 17 15 16 20 25 28 30 30 26 29 31 31 32 32 31 29 27 26 26 26
7 9 11 10 11 13 14 17 16 15 12 11 12 14 14 13 12 11 10 10 9 11 14 20 23 20 18 18 22 28 33 33 30 25 31 33 33 34 35 35 34 32 31 30
7 10 12 6 10 7 7 15 16 17 15 15 8 15 13 15 14 15 16 16 16 13 11 15 18 19 19 19 18 20 28 33 33 30 27 34 33 32 33 34 38 36 35 34
7 12 10 8 10 5 7 14 15 14 16 14 15 16 16 17 18 20 19 21 22 22 15 11 13 16 16 20 19 17 19 22 29 31 30 31 33 31 33 38 38 35 35 37
10 10 7 7 10 3 12 16 15 14 13 14 15 16 17 17 17 20 20 21 24 26 26 19 16 16 16 19 20 16 12 17 23 28 34 34 33 32 26 35 40 37 36 36
8 8 6 8 4 6 7 14 12 10 11 13 15 18 19 19 21 20 22 24 26 28 31 31 23 19 18 16 16 18 24 17 16 23 29 37 39 37 31 26 34 41 41 38
10 10 9 8 4 5 10 11 10 4 6 8 14 18 20 23 27 25 24 26 30 31 32 35 34 29 25 21 17 15 18 18 11 16 23 30 37 38 37 34 29 40 40 40
11 10 10 10 5 6 10 13 11 10 12 12 14 19 23 28 32 35 34 33 33 34 35 38 40 34 31 31 26 21 18 19 18 14 14 15 22 33 34 37 36 34 40 40
9 10 7 9 8 7 5 9 14 15 15 15 15 16 18 19 23 30 38 41 42 39 41 42 45 41 35 30 36 34 29 22 22 18 11 11 13 20 30 37 39 38 41 39
11 12 10 10 11 10 10 9 9 11 13 14 16 18 22 24 25 26 30 36 44 45 47 48 48 47 49 38 34 36 39 37 31 28 24 18 11 18 23 29 33 36 43 40
15 13 13 14 12 14 14 12 12 10 13 16 19 22 23 27 25 31 33 35 34 41 45 47 52 53 50 48 44 37 35 36 40 39 35 31 23 20 22 26 32 30 35 37
18 18 16 12 13 13 14 14 13 14 16 18 21 24 25 27 26 29 33 34 31 30 39 47 52 54 56 52 46 45 39 37 37 36 41 44 41 34 28 28 25 27 34 28